• In Czech Republic
  • List of Countries
  • For 7 days
  • Water Temperature
  • Satellite Maps
  • Weather Map
  • Weather Widgets
  • user-avatar
    Login

    Hourly Weather Salva

    Today, 15 December, Friday

    Time Temperature Precipitation Wind Pressure Humidity
    00:00 +18°C° 0 mm 2 mps 762 mmHg 68%
    01:00 +18°C° 0 mm 2 mps 762 mmHg 68%
    02:00 +17°C° 0 mm 2 mps 762 mmHg 68%
    03:00 +17°C° 0 mm 2 mps 761 mmHg 64%
    04:00 +17°C° 0 mm 2 mps 761 mmHg 65%
    05:00 +16°C° 0 mm 2 mps 762 mmHg 66%
    06:00 +16°C° 0 mm 2 mps 762 mmHg 67%
    07:00 +18°C° 0 mm 3 mps 762 mmHg 60%
    08:00 +20°C° 0 mm 3 mps 762 mmHg 52%
    09:00 +21°C° 0 mm 4 mps 763 mmHg 37%
    10:00 +23°C° 0 mm 4 mps 763 mmHg 31%
    11:00 +25°C° 0 mm 5 mps 762 mmHg 26%
    12:00 +26°C° 0 mm 5 mps 762 mmHg 21%
    13:00 +27°C° 0 mm 5 mps 762 mmHg 19%
    14:00 +27°C° 0 mm 4 mps 761 mmHg 18%
    15:00 +28°C° 0 mm 4 mps 761 mmHg 17%
    16:00 +26°C° 0 mm 3 mps 761 mmHg 20%
    17:00 +24°C° 0 mm 2 mps 761 mmHg 23%
    18:00 +21°C° 0 mm 2 mps 761 mmHg 25%
    19:00 +20°C° 0 mm 2 mps 762 mmHg 27%
    20:00 +20°C° 0 mm 1 mps 762 mmHg 29%
    21:00 +20°C° 0 mm 1 mps 762 mmHg 31%
    22:00 +19°C° 0 mm 1 mps 762 mmHg 32%
    23:00 +19°C° 0 mm 1 mps 762 mmHg 33%

    Tomorrow, 16 December, Saturday

    Time Temperature Precipitation Wind Pressure Humidity
    00:00 +18°C° 0 mm 1 mps 762 mmHg 34%
    01:00 +18°C° 0 mm 2 mps 762 mmHg 32%
    02:00 +18°C° 0 mm 3 mps 762 mmHg 29%
    03:00 +19°C° 0 mm 3 mps 762 mmHg 27%
    04:00 +18°C° 0 mm 4 mps 763 mmHg 29%
    05:00 +18°C° 0 mm 4 mps 763 mmHg 30%
    06:00 +18°C° 0 mm 4 mps 763 mmHg 32%
    07:00 +19°C° 0 mm 5 mps 763 mmHg 31%
    08:00 +20°C° 0 mm 5 mps 764 mmHg 29%
    09:00 +21°C° 0 mm 6 mps 764 mmHg 28%
    10:00 +22°C° 0 mm 5 mps 764 mmHg 26%
    11:00 +23°C° 0 mm 5 mps 764 mmHg 25%
    12:00 +26°C° 0 mm 5 mps 763 mmHg 23%
    13:00 +25°C° 0 mm 4 mps 763 mmHg 23%
    14:00 +25°C° 0 mm 4 mps 763 mmHg 24%
    15:00 +25°C° 0 mm 4 mps 763 mmHg 25%
    16:00 +23°C° 0 mm 4 mps 763 mmHg 29%
    17:00 +22°C° 0 mm 4 mps 763 mmHg 33%
    18:00 +20°C° 0 mm 4 mps 764 mmHg 37%
    19:00 +20°C° 0 mm 4 mps 764 mmHg 38%
    20:00 +19°C° 0 mm 4 mps 764 mmHg 39%
    21:00 +19°C° 0 mm 4 mps 765 mmHg 40%
    22:00 +19°C° 0 mm 4 mps 765 mmHg 41%
    23:00 +19°C° 0 mm 4 mps 765 mmHg 43%

    Day after tomorrow, 17 December, Sunday

    Time Temperature Precipitation Wind Pressure Humidity
    00:00 +18°C° 0 mm 4 mps 765 mmHg 44%
    01:00 +18°C° 0.1 mm 4 mps 765 mmHg 45%
    02:00 +18°C° 0.1 mm 4 mps 765 mmHg 47%
    03:00 +18°C° 0.1 mm 4 mps 765 mmHg 49%
    04:00 +17°C° 0.1 mm 4 mps 765 mmHg 51%
    05:00 +17°C° 0.1 mm 4 mps 765 mmHg 53%
    06:00 +17°C° 0.1 mm 4 mps 765 mmHg 55%
    07:00 +18°C° 0 mm 4 mps 766 mmHg 53%
    08:00 +20°C° 0 mm 4 mps 766 mmHg 50%
    09:00 +21°C° 0 mm 4 mps 767 mmHg 48%
    10:00 +22°C° 0 mm 4 mps 766 mmHg 47%
    11:00 +24°C° 0 mm 3 mps 766 mmHg 46%
    12:00 +25°C° 0 mm 3 mps 765 mmHg 45%
    13:00 +25°C° 0 mm 3 mps 765 mmHg 45%
    14:00 +25°C° 0 mm 3 mps 765 mmHg 45%
    15:00 +26°C° 0 mm 3 mps 764 mmHg 45%
    16:00 +25°C° 0.1 mm 3 mps 765 mmHg 50%
    17:00 +24°C° 0.1 mm 3 mps 765 mmHg 55%
    18:00 +23°C° 0.1 mm 2 mps 765 mmHg 60%
    19:00 +21°C° 0 mm 2 mps 765 mmHg 62%
    20:00 +21°C° 0 mm 2 mps 766 mmHg 64%
    21:00 +20°C° 0 mm 2 mps 766 mmHg 67%
    22:00 +20°C° 0 mm 2 mps 766 mmHg 68%
    23:00 +20°C° 0 mm 2 mps 766 mmHg 70%

    18 December, Monday

    Time Temperature Precipitation Wind Pressure Humidity
    00:00 +19°C° 0 mm 2 mps 766 mmHg 71%
    01:00 +19°C° 0 mm 2 mps 766 mmHg 72%
    02:00 +19°C° 0 mm 2 mps 766 mmHg 74%
    03:00 +18°C° 0 mm 2 mps 766 mmHg 75%
    04:00 +18°C° 0 mm 2 mps 767 mmHg 75%
    05:00 +18°C° 0 mm 3 mps 767 mmHg 76%
    06:00 +18°C° 0 mm 3 mps 767 mmHg 77%
    07:00 +20°C° 0 mm 3 mps 767 mmHg 70%
    08:00 +21°C° 0 mm 3 mps 768 mmHg 64%
    09:00 +23°C° 0 mm 4 mps 768 mmHg 58%
    10:00 +25°C° 0 mm 4 mps 768 mmHg 54%
    11:00 +25°C° 0 mm 4 mps 767 mmHg 50%
    12:00 +26°C° 0 mm 4 mps 767 mmHg 46%
    13:00 +26°C° 0 mm 4 mps 766 mmHg 46%
    14:00 +26°C° 0 mm 4 mps 766 mmHg 46%
    15:00 +26°C° 0 mm 4 mps 765 mmHg 45%
    16:00 +25°C° 0 mm 4 mps 766 mmHg 48%
    17:00 +25°C° 0 mm 4 mps 766 mmHg 51%
    18:00 +23°C° 0 mm 4 mps 766 mmHg 54%
    19:00 +22°C° 0 mm 3 mps 766 mmHg 56%
    20:00 +22°C° 0 mm 3 mps 767 mmHg 58%
    21:00 +21°C° 0 mm 3 mps 767 mmHg 59%
    22:00 +21°C° 0 mm 3 mps 767 mmHg 60%
    23:00 +21°C° 0 mm 3 mps 767 mmHg 61%

    19 December, Tuesday

    Time Temperature Precipitation Wind Pressure Humidity
    00:00 +20°C° 0 mm 3 mps 767 mmHg 62%
    01:00 +20°C° 0 mm 3 mps 767 mmHg 63%
    02:00 +20°C° 0 mm 3 mps 767 mmHg 63%
    03:00 +19°C° 0 mm 4 mps 767 mmHg 64%
    04:00 +19°C° 0 mm 4 mps 767 mmHg 65%
    05:00 +19°C° 0 mm 4 mps 768 mmHg 66%
    06:00 +19°C° 0 mm 4 mps 768 mmHg 67%
    07:00 +20°C° 0 mm 4 mps 768 mmHg 61%
    08:00 +22°C° 0 mm 5 mps 769 mmHg 56%
    09:00 +23°C° 0 mm 5 mps 769 mmHg 50%
    10:00 +25°C° 0 mm 5 mps 769 mmHg 45%
    11:00 +26°C° 0 mm 5 mps 768 mmHg 41%
    12:00 +27°C° 0 mm 5 mps 768 mmHg 36%
    13:00 +27°C° 0 mm 5 mps 767 mmHg 36%
    14:00 +26°C° 0 mm 5 mps 767 mmHg 36%
    15:00 +26°C° 0 mm 5 mps 767 mmHg 36%
    16:00 +25°C° 0 mm 5 mps 767 mmHg 40%
    17:00 +23°C° 0 mm 4 mps 767 mmHg 44%
    18:00 +22°C° 0 mm 4 mps 767 mmHg 49%
    19:00 +21°C° 0 mm 4 mps 768 mmHg 51%
    20:00 +21°C° 0 mm 3 mps 768 mmHg 53%
    21:00 +20°C° 0 mm 3 mps 768 mmHg 56%
    22:00 +20°C° 0 mm 3 mps 768 mmHg 57%
    23:00 +20°C° 0 mm 3 mps 768 mmHg 59%

    20 December, Wednesday

    Time Temperature Precipitation Wind Pressure Humidity
    00:00 +19°C° 0 mm 3 mps 768 mmHg 61%
    01:00 +19°C° 0 mm 3 mps 768 mmHg 63%
    02:00 +19°C° 0 mm 3 mps 767 mmHg 64%
    03:00 +19°C° 0 mm 3 mps 767 mmHg 65%
    04:00 +18°C° 0 mm 3 mps 768 mmHg 66%
    05:00 +18°C° 0 mm 3 mps 768 mmHg 68%
    06:00 +18°C° 0 mm 3 mps 768 mmHg 69%
    07:00 +19°C° 0 mm 3 mps 768 mmHg 63%
    08:00 +21°C° 0 mm 3 mps 769 mmHg 57%
    09:00 +22°C° 0 mm 3 mps 769 mmHg 52%
    10:00 +24°C° 0 mm 3 mps 769 mmHg 48%
    11:00 +25°C° 0 mm 3 mps 768 mmHg 44%
    12:00 +26°C° 0 mm 3 mps 768 mmHg 39%
    13:00 +26°C° 0 mm 3 mps 767 mmHg 39%
    14:00 +26°C° 0 mm 3 mps 767 mmHg 38%
    15:00 +27°C° 0 mm 3 mps 767 mmHg 37%
    16:00 +25°C° 0 mm 3 mps 767 mmHg 42%
    17:00 +24°C° 0 mm 3 mps 767 mmHg 47%
    18:00 +22°C° 0 mm 3 mps 768 mmHg 52%
    19:00 +22°C° 0 mm 3 mps 768 mmHg 53%
    20:00 +21°C° 0 mm 3 mps 768 mmHg 55%
    21:00 +21°C° 0 mm 3 mps 768 mmHg 56%
    22:00 +20°C° 0 mm 2 mps 768 mmHg 57%
    23:00 +20°C° 0 mm 2 mps 768 mmHg 58%
    Show more